OTB-3-GAZELLE

Last updated on Thu Oct 23 2025 00:02:49 GMT+0000 (Coordinated Universal Time)

1 54023U 22127A 25295.50805024 .00000263 00000+0 92189-4 0 9998 2 54023 98.3794 286.0833 0013044 180.5229 179.5950 14.42575559160094
UTC large
Height (km)
Speed (km/s)
/
Latitude / Longitude
Inclination (degrees)
Orbital Period (minutes)
Azimuth
Elevation
Range (km)
Doppler Factor

Next 0 passes for location: London (51.5072 / 0.1276)

Sorry there are no passes over London.